Regional Weather Roundup
Issued by NWS Midland/Odessa, TX

Skip options and go directly to product.
Home | Oldest Version | Previous Version | Current Version | All | Text Only | Save Text | Print | Product List | Glossary On

Skip product version selection by date and time.   
852
ASUS44 KMAF 300310
RWRMAF
MIDLAND AREA WEATHER ROUNDUP
NATIONAL WEATHER SERVICE MIDLAND TX
1000 PM CDT SUN MAY 29 2016

...IN SOUTHWEST TEXAS AND SOUTHEAST NEW MEXICO...

CITY           SKY/WX    TMP DP  RH WIND       PRES   REMARKS
ALPINE         MOCLDY    73  60  63 S9        30.16S
ANDREWS        FAIR      72  63  73 S6        30.07R
ARTESIA        CLEAR     73  57  56 SE8       30.02R
BIG SPRING     PTCLDY    75  63  66 S3        30.06R
CARLSBAD       CLEAR     69  55  60 S3        30.00R
DRYDEN           N/A     78  69  73 SE7       29.98F
FORT STOCKTON  NOT AVBL
GUAD PASS      NOT AVBL
HOBBS          PTCLDY    64  55  72 NE25G36   30.12R HAZE
MARFA          PTCLDY    70  56  61 SE5       30.15R
MIDLAND AIRPK  CLEAR     77  64  63 S6        30.05R
MIDLAND INTL   CLEAR     77  64  64 S12       30.04R
ODESSA         CLEAR     76  63  64 S8        30.05R
PECOS          CLEAR     78  64  60 E10       29.99R
PRESIDIO       FAIR      86  58  38 E15G25    29.99R
SEMINOLE       CLOUDY    63  54  71 NE24G36   30.15R HAZE
SNYDER           N/A     63  59  88 N16G32    30.10R THUNDER
WINK           NOT AVBL
$$
...OTHER STATIONS IN TEXAS...

CITY           SKY/WX    TMP DP  RH WIND       PRES   REMARKS
ABILENE        CLOUDY    75  68  78 W13G26    29.98S
AMARILLO       CLOUDY    57  53  86 SE18G28   30.17R
AUSTIN         PTCLDY    78  69  73 S9        30.03R
BROWNSVILLE    CLOUDY    80  75  84 SE7       30.00R
CORPUS CHRISTI CLOUDY    80  75  84 SE12      30.00R
DALLAS FTW     CLOUDY    75  66  73 E10       30.02F
DEL RIO        MOCLDY    82  73  74 SE9       29.96S
EL PASO        PTCLDY    84  34  16 S12       30.00R
HOUSTON INT    PTCLDY    76  69  79 S5        30.05R
LUBBOCK        TSTM      59  56  89 NE41G51   30.16F
SAN ANGELO     PTCLDY    79  67  66 S7        29.99R
SAN ANTONIO    CLOUDY    78  68  71 SE15      30.02S
WACO           PTCLDY    80  68  66 SE8       30.02R
WICHITA FALLS  NOT AVBL
$$
...OTHER LOCATIONS IN NEW MEXICO...

CITY           SKY/WX    TMP DP  RH WIND       PRES   REMARKS
ALAMAGORDO     CLEAR     75  21  13 S3        30.00S
ALBUQUERQUE    PTCLDY    78  18  10 S15       30.03R
CANNON AFB     CLOUDY    55  54  95 E21G31    30.13S
CLOVIS         CLOUDY    55  48  76 E23G31    30.14S
HOLLOMAN AFB   CLEAR     79  19  10 S6        29.98R
ROSWELL        CLEAR     71  45  39 E3        30.03R
RUIDOSO          N/A     63  46  55 SE13G18   30.24R
SANTA FE       CLEAR     70   7   8 SW5       30.10R
TRUTH OR CONSE CLEAR     80  26  13 S10       30.02R
TUCUMCARI      PTCLDY    59  52  77 E9        30.11R
$$

USA.gov is the U.S. government's official web portal to all federal, state and local government web resources and services.